| time (UTC) | temp F | wind direction | speed MPH | gust MPH | rain 1hr in | rain 24hr in | rain mn in | humidity % | barometer mb |
| 20260507010205 | 75 | 154 | 3.0 | 7.0 | 0.00 | 0.00 | 0.00 | 59 | 1017.7 |
| 20260507005704 | 75 | 190 | 3.0 | 7.0 | 0.00 | 0.00 | 0.00 | 58 | 1017.8 |
| 20260507005204 | 75 | 218 | 3.0 | 7.0 | 0.00 | 0.00 | 0.00 | 60 | 1017.6 |
| 20260507004704 | 75 | 193 | 3.0 | 7.0 | 0.00 | 0.00 | 0.00 | 59 | 1017.7 |
| 20260507004205 | 75 | 208 | 3.0 | 7.0 | 0.00 | 0.00 | 0.00 | 60 | 1017.6 |
| 20260507003706 | 75 | 126 | 3.0 | 7.0 | 0.00 | 0.00 | 0.00 | 60 | 1017.6 |
| 20260507003204 | 74 | 198 | 3.0 | 7.0 | 0.00 | 0.00 | 0.00 | 61 | 1017.6 |
| 20260507002704 | 74 | 190 | 3.0 | 7.0 | 0.00 | 0.00 | 0.00 | 62 | 1017.7 |
| 20260507001704 | 74 | 180 | 4.0 | 8.0 | 0.00 | 0.00 | 0.00 | 61 | 1017.7 |
| 20260507001204 | 75 | 148 | 4.0 | 9.0 | 0.00 | 0.00 | 0.00 | 60 | 1017.6 |
| 20260507000705 | 75 | 196 | 5.0 | 9.0 | 0.00 | 0.00 | 0.00 | 58 | 1017.6 |
| 20260507000212 | 75 | 193 | 5.0 | 9.0 | 0.00 | 0.00 | 0.00 | 59 | 1017.7 |
| 20260506235205 | 75 | 168 | 5.0 | 9.0 | 0.00 | 0.00 | 0.00 | 60 | 1017.7 |
| 20260506234705 | 75 | 212 | 5.0 | 9.0 | 0.00 | 0.00 | 0.00 | 58 | 1017.7 |
| 20260506233704 | 76 | 215 | 3.0 | 9.0 | 0.00 | 0.00 | 0.00 | 58 | 1017.6 |
| 20260506233205 | 76 | 232 | 3.0 | 9.0 | 0.00 | 0.00 | 0.00 | 57 | 1017.7 |
| 20260506232705 | 75 | 194 | 3.0 | 10.0 | 0.00 | 0.00 | 0.00 | 58 | 1017.8 |
| 20260506231704 | 74 | 217 | 5.0 | 10.0 | 0.00 | 0.00 | 0.00 | 57 | 1017.8 |
| 20260506231205 | 74 | 202 | 5.0 | 10.0 | 0.00 | 0.00 | 0.00 | 58 | 1017.9 |
| 20260506230704 | 75 | 183 | 5.0 | 10.0 | 0.00 | 0.00 | 0.00 | 58 | 1018.0 |
| 20260506225705 | 75 | 244 | 5.0 | 12.0 | 0.00 | 0.00 | 0.00 | 56 | 1018.0 |
| 20260506225204 | 75 | 202 | 4.0 | 12.0 | 0.00 | 0.00 | 0.00 | 57 | 1018.1 |
| 20260506224705 | 75 | 232 | 4.0 | 11.0 | 0.00 | 0.00 | 0.00 | 58 | 1018.3 |
| 20260506224205 | 74 | 200 | 6.0 | 11.0 | 0.00 | 0.00 | 0.00 | 58 | 1018.3 |
| 20260506223704 | 74 | 242 | 5.0 | 12.0 | 0.00 | 0.00 | 0.00 | 57 | 1018.3 |
| 20260506222704 | 74 | 250 | 6.0 | 12.0 | 0.00 | 0.00 | 0.00 | 57 | 1018.4 |
| 20260506222205 | 74 | 188 | 6.0 | 10.0 | 0.00 | 0.00 | 0.00 | 56 | 1018.4 |
| 20260506221705 | 74 | 256 | 5.0 | 13.0 | 0.00 | 0.00 | 0.00 | 56 | 1018.6 |
| 20260506221206 | 74 | 227 | 6.0 | 13.0 | 0.00 | 0.00 | 0.00 | 58 | 1018.6 |
| 20260506220706 | 74 | 256 | 5.0 | 13.0 | 0.00 | 0.00 | 0.00 | 57 | 1018.7 |
| 20260506215704 | 74 | 209 | 6.0 | 12.0 | 0.00 | 0.00 | 0.00 | 58 | 1018.9 |
| 20260506215204 | 73 | 243 | 6.0 | 11.0 | 0.00 | 0.00 | 0.00 | 59 | 1018.9 |
| 20260506214704 | 74 | 203 | 6.0 | 11.0 | 0.00 | 0.00 | 0.00 | 58 | 1018.9 |
| 20260506214204 | 74 | 177 | 5.0 | 11.0 | 0.00 | 0.00 | 0.00 | 58 | 1019.1 |
| 20260506213704 | 74 | 262 | 4.0 | 11.0 | 0.00 | 0.00 | 0.00 | 57 | 1019.1 |
| 20260506213204 | 74 | 211 | 5.0 | 12.0 | 0.00 | 0.00 | 0.00 | 59 | 1019.1 |
| 20260506212205 | 74 | 227 | 6.0 | 13.0 | 0.00 | 0.00 | 0.00 | 59 | 1019.2 |
| 20260506211706 | 73 | 269 | 7.0 | 12.0 | 0.00 | 0.00 | 0.00 | 60 | 1019.3 |
| 20260506211204 | 73 | 252 | 7.0 | 12.0 | 0.00 | 0.00 | 0.00 | 59 | 1019.3 |
| 20260506210704 | 73 | 225 | 6.0 | 12.0 | 0.00 | 0.00 | 0.00 | 60 | 1019.3 |
| 20260506210205 | 73 | 232 | 5.0 | 12.0 | 0.00 | 0.00 | 0.00 | 60 | 1019.3 |
| 20260506205204 | 72 | 198 | 6.0 | 12.0 | 0.00 | 0.00 | 0.00 | 61 | 1019.3 |
| 20260506204704 | 72 | 200 | 6.0 | 12.0 | 0.00 | 0.00 | 0.00 | 61 | 1019.4 |
| 20260506203705 | 71 | 223 | 6.0 | 12.0 | 0.00 | 0.00 | 0.00 | 61 | 1019.6 |
| 20260506202704 | 72 | 244 | 5.0 | 10.0 | 0.00 | 0.00 | 0.00 | 61 | 1019.6 |
| 20260506202204 | 71 | 307 | 5.0 | 11.0 | 0.00 | 0.00 | 0.00 | 62 | 1019.7 |
| 20260506201705 | 71 | 258 | 6.0 | 12.0 | 0.00 | 0.00 | 0.00 | 63 | 1019.7 |
| 20260506201206 | 71 | 223 | 6.0 | 12.0 | 0.00 | 0.00 | 0.00 | 62 | 1019.7 |
| 20260506200704 | 71 | 196 | 5.0 | 11.0 | 0.00 | 0.00 | 0.00 | 61 | 1019.9 |
| 20260506200206 | 71 | 233 | 5.0 | 11.0 | 0.00 | 0.00 | 0.00 | 62 | 1019.9 |
| 20260506195205 | 69 | 196 | 5.0 | 9.0 | 0.00 | 0.00 | 0.00 | 64 | 1020.0 |
| 20260506194704 | 69 | 208 | 4.0 | 9.0 | 0.00 | 0.00 | 0.00 | 63 | 1019.9 |
| 20260506194205 | 69 | 175 | 4.0 | 9.0 | 0.00 | 0.00 | 0.00 | 64 | 1019.9 |
| 20260506193704 | 69 | 194 | 4.0 | 10.0 | 0.00 | 0.00 | 0.00 | 65 | 1020.1 |
| 20260506193205 | 69 | 196 | 5.0 | 10.0 | 0.00 | 0.00 | 0.00 | 64 | 1020.1 |
| 20260506192704 | 68 | 141 | 5.0 | 10.0 | 0.00 | 0.00 | 0.00 | 66 | 1020.2 |
| 20260506192205 | 68 | 204 | 5.0 | 10.0 | 0.00 | 0.00 | 0.00 | 66 | 1020.2 |
| 20260506191705 | 67 | 157 | 5.0 | 10.0 | 0.00 | 0.00 | 0.00 | 67 | 1020.2 |
| 20260506191204 | 67 | 190 | 5.0 | 9.0 | 0.00 | 0.00 | 0.00 | 67 | 1020.2 |
| 20260506190204 | 67 | 208 | 4.0 | 9.0 | 0.00 | 0.00 | 0.00 | 70 | 1020.3 |
| 20260506185204 | 66 | 161 | 6.0 | 9.0 | 0.00 | 0.00 | 0.00 | 70 | 1020.3 |
| 20260506184704 | 65 | 193 | 6.0 | 9.0 | 0.00 | 0.00 | 0.00 | 71 | 1020.4 |
| 20260506184205 | 65 | 205 | 5.0 | 11.0 | 0.00 | 0.00 | 0.00 | 71 | 1020.4 |
| 20260506183705 | 65 | 219 | 5.0 | 11.0 | 0.00 | 0.00 | 0.00 | 72 | 1020.3 |
| 20260506183205 | 64 | 210 | 6.0 | 11.0 | 0.00 | 0.00 | 0.00 | 73 | 1020.4 |
| 20260506182705 | 64 | 224 | 6.0 | 10.0 | 0.00 | 0.00 | 0.00 | 73 | 1020.5 |
| 20260506182204 | 64 | 196 | 6.0 | 10.0 | 0.00 | 0.00 | 0.00 | 73 | 1020.5 |
| 20260506181705 | 63 | 192 | 6.0 | 11.0 | 0.00 | 0.00 | 0.00 | 73 | 1020.6 |
| 20260506181204 | 63 | 191 | 6.0 | 12.0 | 0.00 | 0.00 | 0.00 | 74 | 1020.6 |
| 20260506180706 | 63 | 202 | 7.0 | 12.0 | 0.00 | 0.00 | 0.00 | 75 | 1020.5 |
| 20260506180204 | 63 | 198 | 7.0 | 11.0 | 0.00 | 0.00 | 0.00 | 75 | 1020.6 |
| 20260506175704 | 63 | 182 | 6.0 | 11.0 | 0.00 | 0.00 | 0.00 | 75 | 1020.6 |
| 20260506175204 | 63 | 188 | 6.0 | 10.0 | 0.00 | 0.00 | 0.00 | 75 | 1020.6 |
| 20260506174705 | 63 | 209 | 6.0 | 9.0 | 0.00 | 0.00 | 0.00 | 74 | 1020.6 |
| 20260506174205 | 63 | 225 | 5.0 | 9.0 | 0.00 | 0.00 | 0.00 | 74 | 1020.6 |
| 20260506173706 | 64 | 198 | 4.0 | 10.0 | 0.00 | 0.00 | 0.00 | 75 | 1020.5 |
| 20260506173204 | 64 | 209 | 4.0 | 10.0 | 0.00 | 0.00 | 0.00 | 75 | 1020.6 |
| 20260506172704 | 64 | 225 | 4.0 | 8.0 | 0.00 | 0.00 | 0.00 | 75 | 1020.5 |
| 20260506172205 | 63 | 267 | 4.0 | 8.0 | 0.00 | 0.00 | 0.00 | 76 | 1020.5 |
| 20260506171704 | 64 | 210 | 4.0 | 7.0 | 0.00 | 0.00 | 0.00 | 77 | 1020.5 |
| 20260506171204 | 63 | 259 | 4.0 | 8.0 | 0.00 | 0.00 | 0.00 | 77 | 1020.5 |
| 20260506170704 | 63 | 263 | 4.0 | 8.0 | 0.00 | 0.00 | 0.00 | 77 | 1020.6 |
| 20260506170205 | 63 | 160 | 4.0 | 8.0 | 0.00 | 0.00 | 0.00 | 77 | 1020.6 |
| 20260506165204 | 63 | 197 | 4.0 | 7.0 | 0.00 | 0.00 | 0.00 | 77 | 1020.5 |
| 20260506164705 | 63 | 204 | 3.0 | 7.0 | 0.00 | 0.00 | 0.00 | 78 | 1020.5 |
| 20260506163706 | 63 | 175 | 3.0 | 7.0 | 0.00 | 0.00 | 0.00 | 79 | 1020.6 |
| 20260506163204 | 63 | 196 | 3.0 | 7.0 | 0.00 | 0.00 | 0.00 | 79 | 1020.6 |
| 20260506162705 | 62 | 180 | 3.0 | 6.0 | 0.00 | 0.00 | 0.00 | 79 | 1020.6 |
| 20260506162204 | 62 | 200 | 3.0 | 6.0 | 0.00 | 0.00 | 0.00 | 79 | 1020.6 |
| 20260506161704 | 62 | 160 | 2.0 | 6.0 | 0.00 | 0.00 | 0.00 | 79 | 1020.6 |
| 20260506161204 | 62 | 176 | 2.0 | 4.0 | 0.00 | 0.00 | 0.00 | 80 | 1020.6 |
| 20260506160704 | 62 | 203 | 2.0 | 5.0 | 0.00 | 0.00 | 0.00 | 80 | 1020.6 |
| 20260506155705 | 62 | 207 | 2.0 | 5.0 | 0.00 | 0.00 | 0.00 | 81 | 1020.6 |
| 20260506155205 | 62 | 181 | 2.0 | 5.0 | 0.00 | 0.00 | 0.00 | 82 | 1020.6 |
| 20260506154704 | 61 | 119 | 3.0 | 5.0 | 0.00 | 0.00 | 0.00 | 82 | 1020.7 |
| 20260506154215 | 61 | 133 | 2.0 | 4.0 | 0.00 | 0.00 | 0.00 | 83 | 1020.7 |
| 20260506153705 | 61 | 126 | 2.0 | 5.0 | 0.00 | 0.00 | 0.00 | 83 | 1020.7 |
| 20260506153205 | 61 | 170 | 2.0 | 5.0 | 0.00 | 0.00 | 0.00 | 85 | 1020.6 |
| 20260506152704 | 60 | 124 | 2.0 | 5.0 | 0.00 | 0.00 | 0.00 | 86 | 1020.6 |
| 20260506152205 | 60 | 121 | 1.0 | 5.0 | 0.00 | 0.00 | 0.00 | 86 | 1020.6 |
| 20260506151706 | 60 | 130 | 0.0 | 5.0 | 0.00 | 0.00 | 0.00 | 88 | 1020.6 |
| 20260506151204 | 59 | 150 | 0.0 | 0.0 | 0.00 | 0.00 | 0.00 | 88 | 1020.6 |
| 20260506150205 | 58 | 41 | 0.0 | 0.0 | 0.00 | 0.00 | 0.00 | 90 | 1020.6 |
| 20260506145704 | 58 | 41 | 0.0 | 0.0 | 0.00 | 0.00 | 0.00 | 90 | 1020.7 |
| 20260506145205 | 58 | 5 | 0.0 | 0.0 | 0.00 | 0.00 | 0.00 | 90 | 1020.8 |
| 20260506144706 | 57 | 5 | 0.0 | 0.0 | 0.00 | 0.00 | 0.00 | 90 | 1020.8 |
| 20260506144204 | 57 | 5 | 0.0 | 0.0 | 0.00 | 0.00 | 0.00 | 90 | 1020.8 |
| 20260506143704 | 57 | 5 | 0.0 | 0.0 | 0.00 | 0.00 | 0.00 | 91 | 1020.8 |
| 20260506143204 | 56 | 5 | 0.0 | 0.0 | 0.00 | 0.00 | 0.00 | 91 | 1020.8 |
| 20260506142704 | 56 | 5 | 0.0 | 0.0 | 0.00 | 0.00 | 0.00 | 90 | 1020.8 |
| 20260506142204 | 56 | 5 | 0.0 | 0.0 | 0.00 | 0.00 | 0.00 | 90 | 1020.8 |
| 20260506141705 | 56 | 5 | 0.0 | 0.0 | 0.00 | 0.00 | 0.00 | 91 | 1020.6 |
| 20260506140205 | 56 | 5 | 0.0 | 0.0 | 0.00 | 0.00 | 0.00 | 90 | 1020.5 |
| 20260506135704 | 56 | 5 | 0.0 | 0.0 | 0.00 | 0.00 | 0.00 | 90 | 1020.5 |
| 20260506135205 | 55 | 5 | 0.0 | 0.0 | 0.00 | 0.00 | 0.00 | 90 | 1020.4 |
| 20260506134706 | 55 | 5 | 0.0 | 0.0 | 0.00 | 0.00 | 0.00 | 91 | 1020.3 |
| 20260506133704 | 55 | 5 | 0.0 | 0.0 | 0.00 | 0.00 | 0.00 | 91 | 1020.2 |
| 20260506133204 | 55 | 5 | 0.0 | 0.0 | 0.00 | 0.00 | 0.00 | 91 | 1020.1 |
| 20260506132704 | 55 | 5 | 0.0 | 0.0 | 0.00 | 0.00 | 0.00 | 90 | 1020.1 |
| 20260506132204 | 55 | 5 | 0.0 | 0.0 | 0.00 | 0.00 | 0.00 | 90 | 1020.1 |
| 20260506131705 | 55 | 5 | 0.0 | 0.0 | 0.00 | 0.00 | 0.00 | 90 | 1019.9 |
| 20260506131204 | 55 | 5 | 0.0 | 0.0 | 0.00 | 0.00 | 0.00 | 90 | 1019.8 |
| 20260506130705 | 55 | 24 | 0.0 | 0.0 | 0.00 | 0.00 | 0.00 | 91 | 1019.9 |
| 20260506124705 | 55 | 311 | 0.0 | 0.0 | 0.00 | 0.00 | 0.00 | 91 | 1019.8 |
| 20260506123705 | 55 | 311 | 0.0 | 0.0 | 0.00 | 0.00 | 0.00 | 91 | 1019.8 |
| 20260506123205 | 55 | 311 | 0.0 | 0.0 | 0.00 | 0.00 | 0.00 | 91 | 1019.7 |
| 20260506122705 | 55 | 311 | 0.0 | 0.0 | 0.00 | 0.00 | 0.00 | 91 | 1019.7 |
| 20260506121704 | 55 | 311 | 0.0 | 0.0 | 0.00 | 0.00 | 0.00 | 91 | 1019.7 |
| 20260506120705 | 55 | 311 | 0.0 | 0.0 | 0.00 | 0.00 | 0.00 | 91 | 1019.6 |
| 20260506120204 | 55 | 311 | 0.0 | 0.0 | 0.00 | 0.00 | 0.00 | 91 | 1019.6 |
| 20260506115705 | 55 | 311 | 0.0 | 0.0 | 0.00 | 0.00 | 0.00 | 91 | 1019.5 |
| 20260506115205 | 54 | 311 | 0.0 | 0.0 | 0.00 | 0.00 | 0.00 | 91 | 1019.5 |
| 20260506114705 | 55 | 311 | 0.0 | 0.0 | 0.00 | 0.00 | 0.00 | 91 | 1019.4 |
| 20260506114206 | 54 | 311 | 0.0 | 0.0 | 0.00 | 0.00 | 0.00 | 91 | 1019.4 |
| 20260506113705 | 54 | 311 | 0.0 | 0.0 | 0.00 | 0.00 | 0.00 | 91 | 1019.4 |
| 20260506113204 | 54 | 311 | 0.0 | 0.0 | 0.00 | 0.00 | 0.00 | 91 | 1019.4 |
| 20260506112704 | 54 | 311 | 0.0 | 0.0 | 0.00 | 0.00 | 0.00 | 90 | 1019.5 |
| 20260506111705 | 54 | 311 | 0.0 | 0.0 | 0.00 | 0.00 | 0.00 | 90 | 1019.5 |
| 20260506111206 | 54 | 311 | 0.0 | 0.0 | 0.00 | 0.00 | 0.00 | 90 | 1019.4 |
| 20260506110705 | 54 | 311 | 0.0 | 0.0 | 0.00 | 0.00 | 0.00 | 90 | 1019.4 |
| 20260506110204 | 54 | 311 | 0.0 | 0.0 | 0.00 | 0.00 | 0.00 | 90 | 1019.3 |
| 20260506105704 | 54 | 311 | 0.0 | 0.0 | 0.00 | 0.00 | 0.00 | 90 | 1019.4 |
| 20260506104704 | 54 | 311 | 0.0 | 0.0 | 0.00 | 0.00 | 0.00 | 90 | 1019.4 |
| 20260506104204 | 54 | 311 | 0.0 | 0.0 | 0.00 | 0.00 | 0.00 | 90 | 1019.3 |
| 20260506103704 | 54 | 311 | 0.0 | 3.0 | 0.00 | 0.00 | 0.00 | 90 | 1019.3 |
| 20260506103206 | 54 | 311 | 0.0 | 3.0 | 0.00 | 0.00 | 0.00 | 90 | 1019.4 |
| 20260506102705 | 54 | 311 | 1.0 | 3.0 | 0.00 | 0.00 | 0.00 | 90 | 1019.3 |
| 20260506102204 | 54 | 308 | 1.0 | 2.0 | 0.00 | 0.00 | 0.00 | 90 | 1019.4 |
| 20260506101704 | 54 | 19 | 0.0 | 2.0 | 0.00 | 0.00 | 0.00 | 90 | 1019.4 |
| 20260506101204 | 54 | 19 | 0.0 | 2.0 | 0.00 | 0.00 | 0.00 | 90 | 1019.3 |
| 20260506100704 | 54 | 19 | 0.0 | 2.0 | 0.00 | 0.00 | 0.00 | 90 | 1019.3 |
| 20260506100205 | 54 | 19 | 0.0 | 2.0 | 0.00 | 0.00 | 0.00 | 90 | 1019.3 |
| 20260506095704 | 54 | 19 | 0.0 | 3.0 | 0.00 | 0.00 | 0.00 | 90 | 1019.3 |
| 20260506095204 | 54 | 19 | 0.0 | 3.0 | 0.00 | 0.00 | 0.00 | 90 | 1019.4 |
| 20260506094705 | 54 | 19 | 1.0 | 3.0 | 0.00 | 0.00 | 0.00 | 90 | 1019.3 |
| 20260506094205 | 54 | 19 | 1.0 | 3.0 | 0.00 | 0.00 | 0.00 | 89 | 1019.3 |
| 20260506093704 | 54 | 19 | 1.0 | 2.0 | 0.00 | 0.00 | 0.00 | 89 | 1019.4 |
| 20260506093205 | 54 | 322 | 1.0 | 2.0 | 0.00 | 0.00 | 0.00 | 89 | 1019.5 |
| 20260506092704 | 54 | 322 | 1.0 | 2.0 | 0.00 | 0.00 | 0.00 | 89 | 1019.5 |
| 20260506092205 | 55 | 322 | 0.0 | 2.0 | 0.00 | 0.00 | 0.00 | 89 | 1019.5 |
| 20260506091704 | 55 | 322 | 0.0 | 2.0 | 0.00 | 0.00 | 0.00 | 89 | 1019.5 |
| 20260506090704 | 55 | 322 | 0.0 | 2.0 | 0.00 | 0.00 | 0.00 | 88 | 1019.3 |
| 20260506085704 | 55 | 322 | 0.0 | 0.0 | 0.00 | 0.00 | 0.00 | 88 | 1019.3 |
| 20260506085205 | 55 | 322 | 0.0 | 0.0 | 0.00 | 0.00 | 0.00 | 88 | 1019.3 |
| 20260506084704 | 55 | 322 | 0.0 | 0.0 | 0.00 | 0.00 | 0.00 | 87 | 1019.2 |
| 20260506084204 | 56 | 322 | 0.0 | 0.0 | 0.00 | 0.00 | 0.00 | 87 | 1019.2 |
| 20260506083204 | 56 | 322 | 0.0 | 0.0 | 0.00 | 0.00 | 0.00 | 87 | 1019.3 |
| 20260506082705 | 56 | 322 | 0.0 | 0.0 | 0.00 | 0.00 | 0.00 | 87 | 1019.2 |
| 20260506082204 | 56 | 322 | 0.0 | 0.0 | 0.00 | 0.00 | 0.00 | 87 | 1019.2 |
| 20260506081704 | 56 | 322 | 0.0 | 0.0 | 0.00 | 0.00 | 0.00 | 86 | 1019.2 |
| 20260506081204 | 56 | 322 | 0.0 | 0.0 | 0.00 | 0.00 | 0.00 | 86 | 1019.2 |
| 20260506080705 | 56 | 322 | 0.0 | 0.0 | 0.00 | 0.00 | 0.00 | 86 | 1019.2 |
| 20260506080205 | 56 | 322 | 0.0 | 0.0 | 0.00 | 0.00 | 0.00 | 86 | 1019.2 |
| 20260506073205 | 57 | 322 | 0.0 | 1.0 | 0.00 | 0.00 | 0.00 | 85 | 1019.0 |
| 20260506072704 | 58 | 322 | 0.0 | 2.0 | 0.00 | 0.00 | 0.00 | 85 | 1018.9 |
| 20260506072205 | 58 | 322 | 0.0 | 2.0 | 0.00 | 0.00 | 0.00 | 85 | 1019.0 |
| 20260506071705 | 58 | 322 | 0.0 | 2.0 | 0.00 | 0.00 | 0.00 | 85 | 1019.0 |
| 20260506071204 | 58 | 322 | 0.0 | 2.0 | 0.00 | 0.00 | 0.00 | 84 | 1018.9 |
| 20260506070705 | 58 | 322 | 0.0 | 1.0 | 0.00 | 0.00 | 0.00 | 84 | 1018.9 |
| 20260506070205 | 58 | 322 | 0.0 | 1.0 | 0.00 | 0.00 | 0.00 | 84 | 1018.8 |
| 20260506062205 | 59 | 322 | 0.0 | 0.0 | 0.00 | 0.00 | 0.00 | 82 | 1018.6 |
| 20260506061204 | 58 | 322 | 0.0 | 0.0 | 0.00 | 0.00 | 0.00 | 81 | 1018.5 |
| 20260506060704 | 58 | 322 | 0.0 | 0.0 | 0.00 | 0.00 | 0.00 | 81 | 1018.5 |
| 20260506060205 | 58 | 322 | 0.0 | 0.0 | 0.00 | 0.00 | 0.00 | 81 | 1018.5 |
| 20260506051206 | 59 | 322 | 0.0 | 0.0 | 0.00 | 0.00 | 0.00 | 82 | 1018.3 |
| 20260506050704 | 59 | 322 | 0.0 | 0.0 | 0.00 | 0.00 | 0.00 | 82 | 1018.3 |
| 20260506050206 | 58 | 322 | 0.0 | 0.0 | 0.00 | 0.00 | 0.00 | 82 | 1018.3 |
| 20260506043705 | 59 | 322 | 0.0 | 2.0 | 0.00 | 0.00 | 0.00 | 82 | 1018.0 |
| 20260506043204 | 59 | 322 | 0.0 | 2.0 | 0.00 | 0.00 | 0.00 | 82 | 1017.9 |
| 20260506042705 | 59 | 315 | 0.0 | 2.0 | 0.00 | 0.00 | 0.00 | 82 | 1017.9 |
| 20260506042205 | 59 | 315 | 0.0 | 3.0 | 0.00 | 0.00 | 0.00 | 82 | 1017.8 |
| 20260506041205 | 59 | 28 | 2.0 | 4.0 | 0.00 | 0.00 | 0.00 | 82 | 1017.9 |
| 20260506040704 | 59 | 0 | 2.0 | 4.0 | 0.00 | 0.00 | 0.00 | 82 | 1017.8 |
| 20260506040205 | 59 | 318 | 1.0 | 2.0 | 0.00 | 0.00 | 0.00 | 82 | 1017.7 |
| 20260506035205 | 59 | 344 | 0.0 | 3.0 | 0.00 | 0.00 | 0.00 | 82 | 1017.6 |
| 20260506034704 | 59 | 341 | 1.0 | 3.0 | 0.00 | 0.00 | 0.00 | 82 | 1017.5 |
| 20260506033704 | 59 | 338 | 1.0 | 5.0 | 0.00 | 0.00 | 0.00 | 81 | 1017.3 |
| 20260506033206 | 59 | 5 | 2.0 | 5.0 | 0.00 | 0.00 | 0.00 | 81 | 1017.3 |
| 20260506032705 | 59 | 323 | 2.0 | 5.0 | 0.00 | 0.00 | 0.00 | 81 | 1017.3 |
| 20260506031705 | 59 | 355 | 2.0 | 4.0 | 0.00 | 0.00 | 0.00 | 81 | 1017.0 |
| 20260506031205 | 59 | 13 | 2.0 | 4.0 | 0.00 | 0.00 | 0.00 | 81 | 1017.0 |
| 20260506030704 | 59 | 28 | 1.0 | 4.0 | 0.00 | 0.00 | 0.00 | 81 | 1017.0 |
| 20260506030205 | 59 | 28 | 1.0 | 3.0 | 0.00 | 0.00 | 0.00 | 81 | 1016.8 |
| 20260506025705 | 59 | 43 | 1.0 | 3.0 | 0.00 | 0.00 | 0.00 | 81 | 1016.8 |
| 20260506025204 | 59 | 339 | 1.0 | 5.0 | 0.00 | 0.00 | 0.00 | 81 | 1016.8 |
| 20260506024704 | 59 | 15 | 1.0 | 5.0 | 0.00 | 0.00 | 0.00 | 81 | 1016.7 |
| 20260506024206 | 59 | 35 | 1.0 | 7.0 | 0.00 | 0.00 | 0.00 | 81 | 1016.7 |
| 20260506023705 | 59 | 88 | 2.0 | 7.0 | 0.00 | 0.00 | 0.00 | 81 | 1016.7 |
| 20260506023205 | 59 | 74 | 3.0 | 7.0 | 0.00 | 0.00 | 0.00 | 80 | 1016.6 |
| 20260506022204 | 60 | 63 | 2.0 | 6.0 | 0.00 | 0.00 | 0.00 | 80 | 1016.7 |
| 20260506021704 | 60 | 78 | 2.0 | 7.0 | 0.00 | 0.00 | 0.00 | 80 | 1016.7 |
| 20260506020705 | 60 | 86 | 3.0 | 7.0 | 0.00 | 0.00 | 0.00 | 80 | 1016.7 |
| 20260506015705 | 60 | 45 | 2.0 | 5.0 | 0.00 | 0.00 | 0.00 | 79 | 1016.7 |
| 20260506014204 | 60 | 82 | 2.0 | 7.0 | 0.00 | 0.00 | 0.00 | 79 | 1016.6 |
| 20260506013704 | 60 | 96 | 3.0 | 9.0 | 0.00 | 0.00 | 0.00 | 79 | 1016.6 |
| 20260506012704 | 60 | 113 | 3.0 | 9.0 | 0.00 | 0.00 | 0.00 | 78 | 1016.6 |
| 20260506012205 | 60 | 79 | 3.0 | 6.0 | 0.00 | 0.00 | 0.00 | 78 | 1016.6 |
| 20260506011704 | 60 | 59 | 3.0 | 6.0 | 0.00 | 0.00 | 0.00 | 78 | 1016.5 |